Location: Unspecified
(48.4880°N, 16.2230°E)
Time: 05:53:02
(UTC+00:00)

Daily predictions for brighter satellites

Satellite Brightness Start Highest point End
(mag) Time Altitude Azimuth Time Altitude Azimuth Time Altitude Azimuth
Cosmos 841 Rocket 3.8 00:00:02 10° NNW 00:05:13 65° ENE 00:09:56 12° SE
Cosmos 1934 Rocket 4.1 00:00:36 10° NNW 00:06:53 64° W 00:10:47 24° SSW
Lacrosse 5 rocket 1.2 00:07:01 10° WNW 00:10:17 41° SW 00:10:26 40° SW
IDEFIX/ARIANE 42P 3.5 00:05:25 10° NNE 00:10:19 39° E 00:13:49 17° SSE
Cosmos 2263 Rocket 3.4 00:05:17 10° NNW 00:10:35 41° NE 00:15:53 10° ESE
Cosmos 1980 Rocket 3.8 00:07:02 13° SSE 00:10:45 25° ESE 00:15:17 10° NE
Cosmos 407 Rocket 4.1 00:10:24 21° SW 00:13:36 47° WNW 00:18:35 10° NNE
Cosmos 332 Rocket 3.8 00:13:26 28° S 00:15:54 68° ESE 00:20:37 10° NNE
Cosmos 405 Rocket 2.1 00:15:21 45° SW 00:16:01 62° WNW 00:18:59 10° N
Cosmos 1809 Rocket 4.5 00:14:17 24° S 00:18:18 88° E 00:24:29 10° N
Cosmos 371 Rocket 4.4 00:15:57 17° WSW 00:19:09 35° WNW 00:23:35 10° N
Cosmos 374 Rocket 4.2 00:18:42 29° SW 00:20:36 84° NW 00:24:24 10° NE
Cosmos 2221 Rocket 4.0 00:20:58 22° SSE 00:23:43 57° E 00:28:11 10° NNE
MINOTAUR IV R/B 4.4 00:19:37 10° NNW 00:24:03 78° WSW 00:27:06 20° SSE
SL-4 R/B 1.2 00:22:05 10° WNW 00:25:17 89° S 00:28:23 10° ESE
Cosmos 1656 4.4 00:26:06 16° WSW 00:30:12 44° NW 00:35:33 10° NNE
Cosmos 1378 Rocket 4.0 00:29:06 25° SW 00:31:14 47° WNW 00:35:23 10° N
USA 308 2.5 00:28:27 10° WNW 00:32:18 74° SSW 00:36:30 10° SE
MOS 1-B Rocket 4.4 00:26:52 10° NNE 00:32:31 52° E 00:36:49 16° S
ATLAS 3B R/B 3.1 00:27:14 21° SSW 00:32:38 68° ESE 00:40:28 10° NE
BREEZE-M DEB (TANK) 3.9 00:18:07 10° WNW 00:33:17 53° SW 00:37:09 10° SE
Cosmos 1455 Rocket 3.7 00:31:16 10° N 00:35:32 53° ENE 00:39:36 11° SSE
Sich 1 Rocket 3.6 00:32:05 10° N 00:36:38 87° E 00:39:53 19° S
Cosmos 1954 Rocket 4.0 00:33:32 23° SSW 00:36:44 77° WNW 00:41:55 10° NNE
CENTAUR R/B 3.4 00:28:44 10° NW 00:36:55 58° WSW 00:46:08 10° SSE
Cosmos 1190 Rocket 4.2 00:36:41 22° SW 00:40:04 62° WNW 00:45:15 10° NNE
CZ-2D R/B 4.4 00:36:50 10° NE 00:40:29 18° E 00:44:05 10° SE
BREEZE-M DEB (TANK) 4.0 00:23:41 10° W 00:41:05 84° N 00:45:14 10° E
CZ-4C R/B 4.4 00:38:23 10° N 00:41:30 29° WNW 00:43:14 19° WSW
Cosmos 1727 Rocket 4.3 00:36:45 15° S 00:41:53 62° E 00:47:58 10° NNE
NOSS 2-2 (E) 4.4 00:42:09 10° WNW 00:45:38 31° SW 00:47:58 20° S
Nimbus 7 Rocket 4.4 00:41:24 10° NNE 00:47:18 86° ESE 00:51:43 19° SSW
Cosmos 292 Rocket 3.7 00:48:07 22° SSW 00:51:13 84° ESE 00:55:58 10° NNE
ISS -1.8 00:52:07 16° SSE 00:53:02 17° SE 00:55:19 10° E
Meteor 1-27 4.3 00:47:42 10° NNW 00:53:32 86° WSW 00:59:10 11° S
Cosmos 2100 Rocket 4.2 00:52:48 10° N 00:59:04 73° ENE 01:05:14 10° SSE
Cosmos 1697 Rocket 2.9 01:00:28 18° SW 01:04:44 66° WNW 01:10:20 10° NNE
ACS3 Solar Sail 3.5 01:04:23 10° NNW 01:08:02 18° WNW 01:11:45 10° W
Meteor 2-16 Rocket 4.4 01:03:38 15° S 01:08:45 86° W 01:14:52 10° N
Cosmos 1025 Rocket 4.2 01:08:07 16° SW 01:10:53 31° WNW 01:14:48 10° N
FENGYUN 3A 3.6 01:07:39 10° NNE 01:13:02 84° WNW 01:17:35 15° SSW
Cosmos 2227 Rocket 2.4 01:09:47 10° NW 01:15:14 50° WSW 01:20:39 10° S
SL-19 R/B 3.6 01:12:48 10° SSE 01:15:56 84° ENE 01:18:57 10° NNW
SJ 16-02 3.7 01:15:30 10° W 01:17:41 14° NW 01:19:52 10° NNW
Resurs 1-4 Rocket 3.2 01:12:57 10° NNE 01:17:52 39° E 01:22:47 10° SSE
Gbstr 26 Del rocket 4.5 01:14:59 10° W 01:21:42 76° NNW 01:29:27 10° ENE
Okean 2 Rocket 4.3 01:18:14 10° NNW 01:21:50 26° W 01:24:29 15° SW
DMSP B5D2-2 4.2 01:16:51 10° SSE 01:22:06 81° ENE 01:27:22 10° NNW
ALOS 3.5 01:19:32 10° NNE 01:23:46 36° E 01:27:58 10° SSE
SL-24 R/B - RUBIN 2 4.2 01:20:59 10° NW 01:25:19 40° WSW 01:30:01 10° S
NOSS 2-3 (E) 4.5 01:20:38 10° NW 01:25:31 73° NE 01:32:06 10° SE
MSX 4.2 01:20:28 10° N 01:26:04 55° WNW 01:31:02 13° SW
USA 229 DEB 4.1 01:20:14 10° WSW 01:26:11 54° NW 01:32:58 10° NE
USA 229 4.1 01:20:17 10° WSW 01:26:12 55° NW 01:33:01 10° NE
Cosmos 2228 3.0 01:23:25 10° NNW 01:27:38 65° W 01:31:49 10° S
NPP 3.8 01:24:05 10° N 01:29:26 64° WNW 01:34:16 13° SSW
Okean 1 Rocket 4.4 01:26:52 10° NW 01:30:16 23° W 01:32:55 13° SW
NOSS 3 (A) 2.9 01:31:01 30° SW 01:31:38 74° NW 01:33:12 10° NE
Cosmos 968 Rocket 3.8 01:27:26 14° SW 01:31:51 57° WNW 01:37:02 10° NNE
ADEOS Rocket 3.4 01:28:57 10° N 01:34:38 47° WNW 01:39:35 12° SW
Cosmos 1437 Rocket 3.2 01:32:50 10° NNW 01:35:58 34° W 01:38:34 13° SSW
Cosmos 2292 Rocket 4.3 01:34:59 14° SW 01:37:43 34° WNW 01:41:49 10° N
Cosmos 1802 Rocket 4.1 01:31:26 10° N 01:37:53 87° W 01:44:20 10° S
Cosmos 1782 3.7 01:35:50 10° NNW 01:38:46 26° W 01:41:08 13° SW
Cosmos 2233 Rocket 4.5 01:33:24 10° N 01:39:40 65° ENE 01:45:55 10° SSE
Cosmos 2297 Rocket 4.0 01:41:04 10° WNW 01:43:30 13° W 01:45:55 10° WSW
Cosmos 1975 Rocket 3.1 01:40:38 11° SSW 01:44:38 62° WNW 01:48:54 10° N
SL-16 R/B 4.4 01:40:13 10° ESE 01:45:37 33° ENE 01:51:02 10° N
USA 59 Rocket 2.5 01:43:26 10° NNW 01:45:58 21° NE 01:48:55 10° E
H-2A R/B 2.5 01:41:13 10° NNE 01:46:19 57° E 01:51:14 10° S
NOSS 3-2 (A) 4.3 01:41:42 10° NW 01:48:49 50° WSW 01:57:14 10° SSE
Cosmos 1862 3.8 01:46:02 12° SW 01:49:00 38° WNW 01:52:22 10° N
IDEFIX/ARIANE 42P 3.6 01:45:01 10° N 01:49:41 34° WNW 01:54:19 10° SW
Aureole 3 Rocket 3.5 01:46:05 10° N 01:50:12 52° ENE 01:53:27 10° SSE
Envisat 3.0 01:45:06 10° NNE 01:50:13 89° W 01:55:17 10° SSW
Cosmos 1864 Rocket 4.5 01:44:44 10° NNW 01:50:51 69° W 01:56:56 10° S
Cosmos 2219 3.2 01:45:45 10° NNW 01:51:24 74° WSW 01:57:04 10° SSE
USA 308 4.0 01:50:48 10° W 01:53:51 20° SW 01:56:49 10° S
Cosmos 1980 Rocket 2.5 01:48:47 11° SW 01:54:18 61° WNW 01:59:58 10° NNE
Cosmos 2263 Rocket 2.7 01:49:19 10° NW 01:54:27 38° WSW 01:59:36 10° S
Cosmos 1741 Rocket 4.3 01:51:45 10° SW 01:56:57 61° WNW 02:02:13 10° NNE
Cosmos 1850 Rocket 4.4 01:55:10 10° SW 02:00:13 54° WNW 02:05:19 10° NNE
SL-4 R/B 2.8 01:59:55 10° W 02:02:07 18° SW 02:04:19 10° S
Cosmos 2237 4.4 01:58:03 10° SSW 02:03:47 81° ESE 02:09:33 10° NNE
Cosmos 1459 Rocket 4.5 01:58:31 10° NNW 02:04:23 44° W 02:10:18 10° SSW
MOZ.5/SAFIR/RUBIN 5/SL-8 4.3 02:02:20 10° SSW 02:06:38 38° W 02:11:01 10° NNW
Cosmos 1844 Rocket 3.2 02:03:01 10° NNW 02:08:37 66° ENE 02:14:12 10° SE
Cosmos 2123 Rocket 4.3 02:04:35 10° SSW 02:10:46 55° WNW 02:16:58 10° N
Cosmos 2058 3.9 02:11:04 10° SW 02:14:31 30° WNW 02:18:01 10° N
ADEOS II 2.3 02:09:39 10° NNE 02:14:56 77° ESE 02:20:08 10° S
